STARLINK-3272 (50187 NORAD) Tracking and Keplerian Element Data
This shows tracking and keplerian element data for the satellite.
Feedback or suggestion? Click here.
Element | Value |
Catalog | 50187 |
Name | STARLINK-3272 |
Epoch Orbit | 2398 |
Epoch Day | 140.91667824 |
Epoch Year | 2022 |
RAAN | 353.5647 |
Inclination | 53.2163 |
Eccentricity | 0.0001781 |
Argument of Perigee | 45.3781 |
Mean Anonmoly | 267.7126 |
Mean Motion | 15.08847639 |
Decay Rate | -0.0002216 |
L1 | 1 50187U 21125AH 22140.91667824 -.00022160 00000+0 -13782-2 0 9999 |
L2 | 2 50187 53.2163 353.5647 0001781 45.3781 267.7126 15.08847639 23985 |
Live tracking and technical data element details for STARLINK-3272 (NORAD 50187). STARLINK-3272 can be tracked NOW for your location showing map with azimuth and elevation plus other details from your city location.
Track the satellite on the map from your city or location and see movement details for azimuth, elevation, latitude, longitude, range, height, and movement on the map or in text.
IsCatalogInMostPopularTable: catalog: 50187, numindb: 21
Update: records affected: 1
GetName: 50187 STARLINK-3272
Hit Count: updated at: Sun, 22 May 2022 04:49:00 GMT